Location: Ferintosh
(52.7647°N, 112.9692°W)
Time: 19:42:09
(UTC+00:00)

A-11 Canister half - Pass Details

Date: 24 May 2024
Orbit: 1515 x 1685 km, 47.2° (Epoch: 12 June)

Event Time Altitude Azimuth Distance (km) Brightness Sun altitude
Rises 14:24:16 0° 281° (WNW) 4,696 11.0 24.8°
Reaches altitude 10° 14:27:30 10° 275° (W) 3,698 10.5 25.3°
Maximum altitude 14:36:01 43° 209° (SSW) 2,020 9.7 26.6°
Drops below altitude 10° 14:44:31 10° 142° (SE) 3,678 11.7 27.9°
Sets 14:47:44 0° 135° (SE) 4,669 12.2 28.4°
